Time,TemperatureF,DewpointF,PressureIn,WindDirection,WindDirectionDegrees,WindSpeedMPH,WindSpeedGustMPH,Humidity,HourlyPrecipIn,Conditions,Clouds,dailyrainin,SoftwareType,DateUTC
2013-06-13 00:05:00,61.3,53.7,30.07,NW,323,5.0,20.0,76,0.00,,,0.00,Wunderground v.1.15,2013-06-13 05:05:00,
2013-06-13 00:10:00,61.1,53.5,30.07,NNW,333,5.0,5.0,76,0.00,,,0.00,Wunderground v.1.15,2013-06-13 05:10:00,
2013-06-13 00:15:00,60.9,53.3,30.07,NNW,329,5.0,20.0,76,0.00,,,0.00,Wunderground v.1.15,2013-06-13 05:15:00,
2013-06-13 00:20:00,60.7,53.4,30.07,NNW,336,4.0,4.0,77,0.00,,,0.00,Wunderground v.1.15,2013-06-13 05:20:00,
2013-06-13 00:25:00,60.5,53.3,30.07,NNW,343,4.0,5.0,77,0.00,,,0.00,Wunderground v.1.15,2013-06-13 05:25:00,
2013-06-13 00:30:00,60.4,53.5,30.07,NNW,347,4.0,4.0,78,0.00,,,0.00,Wunderground v.1.15,2013-06-13 05:30:00,
2013-06-13 00:40:00,60.0,53.5,30.07,NNW,340,5.0,20.0,79,0.00,,,0.00,Wunderground v.1.15,2013-06-13 05:40:00,
2013-06-13 00:45:00,60.0,53.5,30.07,North,355,5.0,20.0,79,0.00,,,0.00,Wunderground v.1.15,2013-06-13 05:45:00,
2013-06-13 00:50:00,60.0,53.5,30.07,North,350,5.0,20.0,79,0.00,,,0.00,Wunderground v.1.15,2013-06-13 05:50:00,
2013-06-13 00:55:00,60.0,53.5,30.07,North,355,6.0,20.0,79,0.00,,,0.00,Wunderground v.1.15,2013-06-13 05:55:00,
2013-06-13 01:00:00,60.1,53.6,30.07,NNW,348,5.0,20.0,79,0.00,,,0.00,Wunderground v.1.15,2013-06-13 06:00:00,
2013-06-13 01:10:00,60.1,53.6,30.07,North,349,6.0,20.0,79,0.00,,,0.00,Wunderground v.1.15,2013-06-13 06:10:00,
2013-06-13 01:15:00,60.0,53.5,30.07,NNW,348,5.0,20.0,79,0.00,,,0.00,Wunderground v.1.15,2013-06-13 06:15:00,
2013-06-13 01:20:00,59.8,53.3,30.07,North,355,4.0,20.0,79,0.00,,,0.00,Wunderground v.1.15,2013-06-13 06:20:00,
2013-06-13 01:25:00,59.8,53.3,30.07,North,5,5.0,20.0,79,0.00,,,0.00,Wunderground v.1.15,2013-06-13 06:25:00,
2013-06-13 01:30:00,59.6,53.1,30.07,North,355,5.0,20.0,79,0.00,,,0.00,Wunderground v.1.15,2013-06-13 06:30:00,
2013-06-13 01:35:00,59.4,53.2,30.08,NNW,341,5.0,20.0,80,0.00,,,0.00,Wunderground v.1.15,2013-06-13 06:35:00,
2013-06-13 01:40:00,59.2,53.0,30.08,NNW,346,4.0,4.0,80,0.00,,,0.00,Wunderground v.1.15,2013-06-13 06:40:00,
2013-06-13 01:45:00,59.1,53.3,30.07,North,355,4.0,20.0,81,0.00,,,0.00,Wunderground v.1.15,2013-06-13 06:45:00,
2013-06-13 01:50:00,59.0,53.2,30.07,North,355,4.0,20.0,81,0.00,,,0.00,Wunderground v.1.15,2013-06-13 06:50:00,
2013-06-13 01:55:00,58.9,53.1,30.07,North,360,4.0,20.0,81,0.00,,,0.00,Wunderground v.1.15,2013-06-13 06:55:00,
2013-06-13 02:00:00,58.8,53.0,30.06,North,5,4.0,20.0,81,0.00,,,0.00,Wunderground v.1.15,2013-06-13 07:00:00,
2013-06-13 02:05:00,58.7,52.9,30.06,NNE,20,7.0,20.0,81,0.00,,,0.00,Wunderground v.1.15,2013-06-13 07:05:00,
2013-06-13 02:15:00,58.5,53.0,30.05,North,11,10.0,20.0,82,0.00,,,0.00,Wunderground v.1.15,2013-06-13 07:15:00,
2013-06-13 02:20:00,58.6,53.1,30.04,NNE,23,10.0,10.0,82,0.00,,,0.00,Wunderground v.1.15,2013-06-13 07:20:00,
2013-06-13 02:25:00,58.6,53.1,30.04,NE,34,9.0,20.0,82,0.00,,,0.00,Wunderground v.1.15,2013-06-13 07:25:00,
2013-06-13 02:30:00,58.6,53.1,30.03,NNE,24,8.0,20.0,82,0.00,,,0.00,Wunderground v.1.15,2013-06-13 07:30:00,
2013-06-13 02:35:00,58.6,53.1,30.04,North,360,9.0,20.0,82,0.00,,,0.00,Wunderground v.1.15,2013-06-13 07:35:00,
2013-06-13 02:45:00,58.7,52.9,30.04,North,5,9.0,20.0,81,0.00,,,0.00,Wunderground v.1.15,2013-06-13 07:45:00,
2013-06-13 02:50:00,58.8,53.0,30.04,NNE,26,8.0,8.0,81,0.00,,,0.00,Wunderground v.1.15,2013-06-13 07:50:00,
2013-06-13 02:55:00,58.8,53.0,30.03,NNE,20,7.0,9.0,81,0.00,,,0.00,Wunderground v.1.15,2013-06-13 07:55:00,
2013-06-13 03:00:00,58.8,53.0,30.03,NNE,20,7.0,7.0,81,0.00,,,0.00,Wunderground v.1.15,2013-06-13 08:00:00,
2013-06-13 03:05:00,58.7,52.9,30.04,NNE,15,7.0,20.0,81,0.00,,,0.00,Wunderground v.1.15,2013-06-13 08:05:00,
2013-06-13 03:10:00,58.6,53.1,30.05,NNE,13,5.0,20.0,82,0.00,,,0.00,Wunderground v.1.15,2013-06-13 08:10:00,
2013-06-13 03:20:00,58.5,53.0,30.05,North,355,4.0,4.0,82,0.00,,,0.00,Wunderground v.1.15,2013-06-13 08:20:00,
2013-06-13 03:25:00,58.4,52.9,30.06,North,355,4.0,6.0,82,0.00,,,0.00,Wunderground v.1.15,2013-06-13 08:25:00,
2013-06-13 03:30:00,58.1,53.0,30.06,North,350,3.0,20.0,83,0.00,,,0.00,Wunderground v.1.15,2013-06-13 08:30:00,
2013-06-13 03:35:00,58.0,52.9,30.05,North,355,4.0,20.0,83,0.00,,,0.00,Wunderground v.1.15,2013-06-13 08:35:00,
2013-06-13 03:40:00,57.9,52.8,30.05,North,355,4.0,20.0,83,0.00,,,0.00,Wunderground v.1.15,2013-06-13 08:40:00,
2013-06-13 03:50:00,57.6,52.8,30.06,North,355,3.0,3.0,84,0.00,,,0.00,Wunderground v.1.15,2013-06-13 08:50:00,
2013-06-13 03:55:00,57.6,52.8,30.07,NNW,329,3.0,4.0,84,0.00,,,0.00,Wunderground v.1.15,2013-06-13 08:55:00,
2013-06-13 04:00:00,57.5,52.7,30.07,NNW,329,4.0,20.0,84,0.00,,,0.00,Wunderground v.1.15,2013-06-13 09:00:00,
2013-06-13 04:05:00,57.3,52.8,30.07,NNW,328,4.0,20.0,85,0.00,,,0.00,Wunderground v.1.15,2013-06-13 09:05:00,
2013-06-13 04:10:00,57.2,52.7,30.07,NW,324,5.0,20.0,85,0.00,,,0.00,Wunderground v.1.15,2013-06-13 09:10:00,
2013-06-13 04:15:00,57.1,52.6,30.08,NW,324,5.0,20.0,85,0.00,,,0.00,Wunderground v.1.15,2013-06-13 09:15:00,
2013-06-13 04:25:00,56.9,52.4,30.07,NW,325,5.0,20.0,85,0.00,,,0.00,Wunderground v.1.15,2013-06-13 09:25:00,
2013-06-13 04:30:00,56.7,52.6,30.07,NW,325,4.0,20.0,86,0.00,,,0.00,Wunderground v.1.15,2013-06-13 09:30:00,
2013-06-13 04:35:00,56.6,52.5,30.06,North,355,4.0,20.0,86,0.00,,,0.00,Wunderground v.1.15,2013-06-13 09:35:00,
2013-06-13 04:40:00,56.6,52.5,30.06,NNE,15,5.0,20.0,86,0.00,,,0.00,Wunderground v.1.15,2013-06-13 09:40:00,
2013-06-13 04:45:00,56.7,52.9,30.06,NNE,19,6.0,20.0,87,0.00,,,0.00,Wunderground v.1.15,2013-06-13 09:45:00,
2013-06-13 04:55:00,56.9,52.8,30.05,NNE,22,8.0,8.0,86,0.00,,,0.00,Wunderground v.1.15,2013-06-13 09:55:00,
2013-06-13 05:00:00,56.9,52.8,30.06,NNE,24,7.0,7.0,86,0.00,,,0.00,Wunderground v.1.15,2013-06-13 10:00:00,
2013-06-13 05:05:00,56.9,52.8,30.07,NNE,22,5.0,20.0,86,0.00,,,0.00,Wunderground v.1.15,2013-06-13 10:05:00,
2013-06-13 05:10:00,56.8,52.7,30.07,NNE,22,3.0,3.0,86,0.00,,,0.00,Wunderground v.1.15,2013-06-13 10:10:00,
2013-06-13 05:15:00,56.8,52.7,30.08,NNW,346,3.0,5.0,86,0.00,,,0.00,Wunderground v.1.15,2013-06-13 10:15:00,
2013-06-13 05:20:00,56.8,52.7,30.08,NNW,346,4.0,20.0,86,0.00,,,0.00,Wunderground v.1.15,2013-06-13 10:20:00,
2013-06-13 05:25:00,56.6,52.5,30.09,NNW,346,4.0,20.0,86,0.00,,,0.00,Wunderground v.1.15,2013-06-13 10:25:00,
2013-06-13 05:30:00,56.4,52.3,30.08,NNW,345,3.0,20.0,86,0.00,,,0.00,Wunderground v.1.15,2013-06-13 10:30:00,
2013-06-13 05:35:00,56.2,52.4,30.08,NNW,342,4.0,20.0,87,0.00,,,0.00,Wunderground v.1.15,2013-06-13 10:35:00,
2013-06-13 05:40:00,56.2,52.4,30.09,NNW,329,5.0,20.0,87,0.00,,,0.00,Wunderground v.1.15,2013-06-13 10:40:00,
2013-06-13 05:45:00,56.3,52.5,30.09,NW,312,6.0,20.0,87,0.00,,,0.00,Wunderground v.1.15,2013-06-13 10:45:00,
2013-06-13 05:50:00,56.0,52.2,30.09,NW,314,7.0,7.0,87,0.00,,,0.00,Wunderground v.1.15,2013-06-13 10:50:00,
2013-06-13 06:00:00,55.6,52.1,30.10,NW,314,6.0,6.0,88,0.00,,,0.00,Wunderground v.1.15,2013-06-13 11:00:00,
2013-06-13 06:05:00,55.5,52.0,30.10,NW,314,4.0,20.0,88,0.00,,,0.00,Wunderground v.1.15,2013-06-13 11:05:00,
2013-06-13 06:10:00,55.4,52.2,30.10,NW,314,3.0,20.0,89,0.00,,,0.00,Wunderground v.1.15,2013-06-13 11:10:00,
2013-06-13 06:15:00,55.4,52.2,30.10,NW,314,3.0,20.0,89,0.00,,,0.00,Wunderground v.1.15,2013-06-13 11:15:00,
2013-06-13 06:20:00,55.4,52.2,30.10,NW,323,4.0,20.0,89,0.00,,,0.00,Wunderground v.1.15,2013-06-13 11:20:00,
2013-06-13 06:30:00,55.6,52.4,30.10,NW,323,2.0,20.0,89,0.00,,,0.00,Wunderground v.1.15,2013-06-13 11:30:00,
2013-06-13 06:35:00,55.9,52.7,30.10,NW,325,3.0,20.0,89,0.00,,,0.00,Wunderground v.1.15,2013-06-13 11:35:00,
2013-06-13 06:40:00,56.1,52.6,30.10,NW,325,3.0,3.0,88,0.00,,,0.00,Wunderground v.1.15,2013-06-13 11:40:00,
2013-06-13 06:45:00,56.1,52.6,30.10,NW,325,3.0,20.0,88,0.00,,,0.00,Wunderground v.1.15,2013-06-13 11:45:00,
2013-06-13 06:50:00,56.2,52.7,30.09,NW,325,3.0,20.0,88,0.00,,,0.00,Wunderground v.1.15,2013-06-13 11:50:00,
2013-06-13 06:55:00,56.4,52.9,30.09,NNW,329,4.0,20.0,88,0.00,,,0.00,Wunderground v.1.15,2013-06-13 11:55:00,
2013-06-13 07:05:00,57.0,53.2,30.09,North,5,6.0,20.0,87,0.00,,,0.00,Wunderground v.1.15,2013-06-13 12:05:00,
2013-06-13 07:10:00,57.3,53.1,30.10,North,11,6.0,6.0,86,0.00,,,0.00,Wunderground v.1.15,2013-06-13 12:10:00,
2013-06-13 07:15:00,57.7,53.5,30.09,NNE,12,6.0,8.0,86,0.00,,,0.00,Wunderground v.1.15,2013-06-13 12:15:00,
2013-06-13 07:20:00,57.9,53.4,30.09,NNE,25,6.0,6.0,85,0.00,,,0.00,Wunderground v.1.15,2013-06-13 12:20:00,
2013-06-13 07:25:00,58.0,53.5,30.09,NNE,25,6.0,8.0,85,0.00,,,0.00,Wunderground v.1.15,2013-06-13 12:25:00,
2013-06-13 07:35:00,58.3,53.8,30.09,NE,35,6.0,20.0,85,0.00,,,0.00,Wunderground v.1.15,2013-06-13 12:35:00,
2013-06-13 07:40:00,58.6,54.1,30.09,NE,36,6.0,20.0,85,0.00,,,0.00,Wunderground v.1.15,2013-06-13 12:40:00,
2013-06-13 07:45:00,59.0,54.2,30.09,NE,36,5.0,20.0,84,0.00,,,0.00,Wunderground v.1.15,2013-06-13 12:45:00,
2013-06-13 07:50:00,59.6,54.4,30.09,NE,44,6.0,6.0,83,0.00,,,0.00,Wunderground v.1.15,2013-06-13 12:50:00,
2013-06-13 07:55:00,60.4,54.5,30.09,NE,35,6.0,20.0,81,0.00,,,0.00,Wunderground v.1.15,2013-06-13 12:55:00,
2013-06-13 08:00:00,61.2,55.0,30.10,NE,39,5.0,20.0,80,0.00,,,0.00,Wunderground v.1.15,2013-06-13 13:00:00,
2013-06-13 08:10:00,62.1,54.8,30.10,NE,38,6.0,6.0,77,0.00,,,0.00,Wunderground v.1.15,2013-06-13 13:10:00,
2013-06-13 08:15:00,62.7,54.7,30.11,NE,51,5.0,7.0,75,0.00,,,0.00,Wunderground v.1.15,2013-06-13 13:15:00,
2013-06-13 08:20:00,63.1,54.7,30.10,NE,49,7.0,20.0,74,0.00,,,0.00,Wunderground v.1.15,2013-06-13 13:20:00,
2013-06-13 08:25:00,63.3,54.5,30.09,NE,44,9.0,20.0,73,0.00,,,0.00,Wunderground v.1.15,2013-06-13 13:25:00,
2013-06-13 08:30:00,63.8,55.0,30.10,NE,45,10.0,20.0,73,0.00,,,0.00,Wunderground v.1.15,2013-06-13 13:30:00,
2013-06-13 08:35:00,64.1,54.5,30.10,NE,48,9.0,20.0,71,0.00,,,0.00,Wunderground v.1.15,2013-06-13 13:35:00,
2013-06-13 08:40:00,64.3,54.3,30.10,NE,46,10.0,20.0,70,0.00,,,0.00,Wunderground v.1.15,2013-06-13 13:40:00,
2013-06-13 08:45:00,64.7,54.3,30.10,NE,47,9.0,20.0,69,0.00,,,0.00,Wunderground v.1.15,2013-06-13 13:45:00,
2013-06-13 08:50:00,64.6,54.6,30.10,NE,48,9.0,20.0,70,0.00,,,0.00,Wunderground v.1.15,2013-06-13 13:50:00,
2013-06-13 08:55:00,64.5,54.1,30.10,NE,51,10.0,20.0,69,0.00,,,0.00,Wunderground v.1.15,2013-06-13 13:55:00,
2013-06-13 09:00:00,65.1,55.1,30.10,NE,44,9.0,9.0,70,0.00,,,0.00,Wunderground v.1.15,2013-06-13 14:00:00,
2013-06-13 09:10:00,66.0,54.3,30.11,ENE,64,8.0,20.0,66,0.00,,,0.00,Wunderground v.1.15,2013-06-13 14:10:00,
2013-06-13 09:15:00,65.9,54.2,30.11,ENE,59,9.0,20.0,66,0.00,,,0.00,Wunderground v.1.15,2013-06-13 14:15:00,
2013-06-13 09:20:00,66.3,54.6,30.11,ENE,60,9.0,20.0,66,0.00,,,0.00,Wunderground v.1.15,2013-06-13 14:20:00,
2013-06-13 09:25:00,66.7,54.1,30.11,ENE,64,7.0,20.0,64,0.00,,,0.00,Wunderground v.1.15,2013-06-13 14:25:00,
2013-06-13 09:30:00,66.9,54.3,30.11,ENE,66,6.0,20.0,64,0.00,,,0.00,Wunderground v.1.15,2013-06-13 14:30:00,
2013-06-13 09:35:00,67.3,54.7,30.11,East,86,7.0,20.0,64,0.00,,,0.00,Wunderground v.1.15,2013-06-13 14:35:00,
2013-06-13 09:45:00,67.6,54.1,30.11,ENE,59,8.0,20.0,62,0.00,,,0.00,Wunderground v.1.15,2013-06-13 14:45:00,
2013-06-13 09:50:00,67.9,54.0,30.10,ENE,63,8.0,8.0,61,0.00,,,0.00,Wunderground v.1.15,2013-06-13 14:50:00,
2013-06-13 09:55:00,68.3,53.9,30.10,ENE,69,7.0,20.0,60,0.00,,,0.00,Wunderground v.1.15,2013-06-13 14:55:00,
2013-06-13 10:00:00,68.6,54.6,30.09,NE,56,7.0,20.0,61,0.00,,,0.00,Wunderground v.1.15,2013-06-13 15:00:00,
2013-06-13 10:05:00,69.1,54.6,30.10,ENE,77,7.0,20.0,60,0.00,,,0.00,Wunderground v.1.15,2013-06-13 15:05:00,
2013-06-13 10:15:00,69.8,54.4,30.10,East,97,7.0,20.0,58,0.00,,,0.00,Wunderground v.1.15,2013-06-13 15:15:00,
2013-06-13 10:20:00,69.9,54.0,30.10,NE,56,6.0,6.0,57,0.00,,,0.00,Wunderground v.1.15,2013-06-13 15:20:00,
2013-06-13 10:25:00,70.3,53.9,30.10,ENE,59,7.0,7.0,56,0.00,,,0.00,Wunderground v.1.15,2013-06-13 15:25:00,
2013-06-13 10:30:00,70.8,53.8,30.10,ENE,74,7.0,20.0,55,0.00,,,0.00,Wunderground v.1.15,2013-06-13 15:30:00,
2013-06-13 10:35:00,70.8,53.3,30.09,NE,55,6.0,20.0,54,0.00,,,0.00,Wunderground v.1.15,2013-06-13 15:35:00,
2013-06-13 10:40:00,70.7,53.7,30.09,ENE,67,7.0,20.0,55,0.00,,,0.00,Wunderground v.1.15,2013-06-13 15:40:00,
2013-06-13 10:50:00,71.5,52.9,30.09,East,90,7.0,20.0,52,0.00,,,0.00,Wunderground v.1.15,2013-06-13 15:50:00,
2013-06-13 10:55:00,71.9,52.2,30.09,ENE,74,7.0,20.0,50,0.00,,,0.00,Wunderground v.1.15,2013-06-13 15:55:00,
2013-06-13 11:00:00,72.8,52.5,30.09,ENE,77,7.0,7.0,49,0.00,,,0.00,Wunderground v.1.15,2013-06-13 16:00:00,
2013-06-13 11:05:00,72.6,51.2,30.09,NE,55,7.0,10.0,47,0.00,,,0.00,Wunderground v.1.15,2013-06-13 16:05:00,
2013-06-13 11:10:00,72.9,50.9,30.09,ENE,71,8.0,20.0,46,0.00,,,0.00,Wunderground v.1.15,2013-06-13 16:10:00,
2013-06-13 11:15:00,72.9,52.1,30.09,East,88,8.0,20.0,48,0.00,,,0.00,Wunderground v.1.15,2013-06-13 16:15:00,
2013-06-13 11:20:00,73.1,50.5,30.09,ENE,78,7.0,20.0,45,0.00,,,0.00,Wunderground v.1.15,2013-06-13 16:20:00,
2013-06-13 11:25:00,73.6,50.3,30.08,East,83,8.0,20.0,44,0.00,,,0.00,Wunderground v.1.15,2013-06-13 16:25:00,
2013-06-13 11:30:00,73.5,50.9,30.08,ESE,105,8.0,20.0,45,0.00,,,0.00,Wunderground v.1.15,2013-06-13 16:30:00,
2013-06-13 11:35:00,74.0,50.7,30.09,East,92,7.0,20.0,44,0.00,,,0.00,Wunderground v.1.15,2013-06-13 16:35:00,
2013-06-13 11:40:00,74.5,51.8,30.08,ESE,108,7.0,20.0,45,0.00,,,0.00,Wunderground v.1.15,2013-06-13 16:40:00,
2013-06-13 11:45:00,74.1,51.4,30.08,East,101,8.0,20.0,45,0.00,,,0.00,Wunderground v.1.15,2013-06-13 16:45:00,
2013-06-13 11:55:00,73.7,48.5,30.08,ESE,114,10.0,20.0,41,0.00,,,0.00,Wunderground v.1.15,2013-06-13 16:55:00,
2013-06-13 12:00:00,73.5,49.0,30.09,East,96,9.0,20.0,42,0.00,,,0.00,Wunderground v.1.15,2013-06-13 17:00:00,
2013-06-13 12:05:00,73.2,49.4,30.09,East,101,7.0,20.0,43,0.00,,,0.00,Wunderground v.1.15,2013-06-13 17:05:00,
2013-06-13 12:10:00,73.0,49.8,30.08,East,101,7.0,20.0,44,0.00,,,0.00,Wunderground v.1.15,2013-06-13 17:10:00,
2013-06-13 12:15:00,72.9,50.3,30.09,East,101,7.0,20.0,45,0.00,,,0.00,Wunderground v.1.15,2013-06-13 17:15:00,
2013-06-13 12:25:00,73.3,50.1,30.09,East,95,7.0,20.0,44,0.00,,,0.00,Wunderground v.1.15,2013-06-13 17:25:00,
2013-06-13 12:30:00,73.5,50.2,30.09,East,98,6.0,6.0,44,0.00,,,0.00,Wunderground v.1.15,2013-06-13 17:30:00,
2013-06-13 12:35:00,73.9,50.0,30.08,East,98,6.0,7.0,43,0.00,,,0.00,Wunderground v.1.15,2013-06-13 17:35:00,
2013-06-13 12:40:00,74.3,50.4,30.09,ENE,69,6.0,6.0,43,0.00,,,0.00,Wunderground v.1.15,2013-06-13 17:40:00,
2013-06-13 12:45:00,74.5,49.9,30.08,East,87,6.0,20.0,42,0.00,,,0.00,Wunderground v.1.15,2013-06-13 17:45:00,
2013-06-13 12:50:00,74.6,50.0,30.08,NE,55,6.0,6.0,42,0.00,,,0.00,Wunderground v.1.15,2013-06-13 17:50:00,
2013-06-13 13:00:00,75.2,50.5,30.08,ENE,65,6.0,6.0,42,0.00,,,0.00,Wunderground v.1.15,2013-06-13 18:00:00,
2013-06-13 13:05:00,75.1,50.4,30.08,ESE,105,7.0,7.0,42,0.00,,,0.00,Wunderground v.1.15,2013-06-13 18:05:00,
2013-06-13 13:10:00,74.8,50.2,30.08,ESE,105,6.0,6.0,42,0.00,,,0.00,Wunderground v.1.15,2013-06-13 18:10:00,
2013-06-13 13:15:00,74.6,50.0,30.08,East,94,4.0,20.0,42,0.00,,,0.00,Wunderground v.1.15,2013-06-13 18:15:00,
2013-06-13 13:20:00,74.3,50.4,30.09,East,90,3.0,3.0,43,0.00,,,0.00,Wunderground v.1.15,2013-06-13 18:20:00,
2013-06-13 13:25:00,74.2,51.5,30.09,NE,53,3.0,7.0,45,0.00,,,0.00,Wunderground v.1.15,2013-06-13 18:25:00,
2013-06-13 13:30:00,73.7,51.6,30.09,NE,50,3.0,3.0,46,0.00,,,0.00,Wunderground v.1.15,2013-06-13 18:30:00,
2013-06-13 13:35:00,73.5,50.9,30.08,ENE,66,4.0,4.0,45,0.00,,,0.00,Wunderground v.1.15,2013-06-13 18:35:00,
2013-06-13 13:40:00,73.3,53.5,30.09,ENE,67,4.0,20.0,50,0.00,,,0.00,Wunderground v.1.15,2013-06-13 18:40:00,
2013-06-13 13:45:00,72.8,50.8,30.10,ENE,68,3.0,20.0,46,0.00,,,0.01,Wunderground v.1.15,2013-06-13 18:45:00,
2013-06-13 13:50:00,72.6,51.8,30.09,ENE,67,1.0,20.0,48,0.07,,,0.02,Wunderground v.1.15,2013-06-13 18:50:00,
2013-06-13 14:00:00,73.3,54.1,30.09,ENE,68,3.0,20.0,51,0.06,,,0.03,Wunderground v.1.15,2013-06-13 19:00:00,
2013-06-13 14:05:00,73.4,55.7,30.09,ENE,73,4.0,20.0,54,0.06,,,0.03,Wunderground v.1.15,2013-06-13 19:05:00,
2013-06-13 14:10:00,73.7,54.4,30.08,ENE,74,4.0,4.0,51,0.05,,,0.03,Wunderground v.1.15,2013-06-13 19:10:00,
2013-06-13 14:15:00,74.1,53.2,30.08,ENE,59,4.0,9.0,48,0.04,,,0.03,Wunderground v.1.15,2013-06-13 19:15:00,
2013-06-13 14:20:00,74.7,54.8,30.08,ENE,75,5.0,20.0,50,0.00,,,0.04,Wunderground v.1.15,2013-06-13 19:20:00,
2013-06-13 14:25:00,74.8,54.9,30.08,East,94,6.0,20.0,50,0.00,,,0.04,Wunderground v.1.15,2013-06-13 19:25:00,
2013-06-13 14:35:00,74.4,54.0,30.06,East,88,7.0,11.0,49,0.00,,,0.04,Wunderground v.1.15,2013-06-13 19:35:00,
2013-06-13 14:40:00,74.6,53.6,30.06,East,86,8.0,20.0,48,0.00,,,0.04,Wunderground v.1.15,2013-06-13 19:40:00,
2013-06-13 14:45:00,74.7,54.3,30.07,East,92,8.0,20.0,49,0.00,,,0.04,Wunderground v.1.15,2013-06-13 19:45:00,
2013-06-13 14:50:00,75.0,52.8,30.06,ENE,67,9.0,20.0,46,0.00,,,0.04,Wunderground v.1.15,2013-06-13 19:50:00,
2013-06-13 14:55:00,75.2,53.0,30.07,East,80,9.0,20.0,46,0.00,,,0.04,Wunderground v.1.15,2013-06-13 19:55:00,
2013-06-13 15:05:00,74.8,52.6,30.07,ENE,78,9.0,20.0,46,0.00,,,0.04,Wunderground v.1.15,2013-06-13 20:05:00,
2013-06-13 15:10:00,74.7,53.1,30.07,East,82,9.0,20.0,47,0.00,,,0.04,Wunderground v.1.15,2013-06-13 20:10:00,
2013-06-13 15:15:00,74.4,52.9,30.06,East,98,9.0,20.0,47,0.00,,,0.04,Wunderground v.1.15,2013-06-13 20:15:00,
2013-06-13 15:20:00,74.6,54.2,30.06,ESE,109,10.0,20.0,49,0.00,,,0.04,Wunderground v.1.15,2013-06-13 20:20:00,
2013-06-13 15:25:00,74.4,53.4,30.05,ESE,117,11.0,20.0,48,0.00,,,0.04,Wunderground v.1.15,2013-06-13 20:25:00,
2013-06-13 15:30:00,74.4,53.4,30.05,East,96,12.0,20.0,48,0.00,,,0.04,Wunderground v.1.15,2013-06-13 20:30:00,
2013-06-13 15:40:00,74.7,54.3,30.04,ESE,107,13.0,20.0,49,0.00,,,0.04,Wunderground v.1.15,2013-06-13 20:40:00,
2013-06-13 15:45:00,74.8,55.5,30.05,ESE,106,13.0,20.0,51,0.00,,,0.04,Wunderground v.1.15,2013-06-13 20:45:00,
2013-06-13 15:50:00,75.3,55.9,30.05,SE,127,12.0,20.0,51,0.00,,,0.04,Wunderground v.1.15,2013-06-13 20:50:00,
2013-06-13 15:55:00,75.2,54.2,30.04,East,100,13.0,20.0,48,0.00,,,0.04,Wunderground v.1.15,2013-06-13 20:55:00,
2013-06-13 16:00:00,75.1,55.2,30.04,ESE,103,14.0,20.0,50,0.00,,,0.04,Wunderground v.1.15,2013-06-13 21:00:00,
2013-06-13 16:10:00,75.9,54.2,30.03,ESE,111,14.0,20.0,47,0.00,,,0.04,Wunderground v.1.15,2013-06-13 21:10:00,
2013-06-13 16:15:00,76.5,55.9,30.03,East,92,14.0,20.0,49,0.00,,,0.04,Wunderground v.1.15,2013-06-13 21:15:00,
2013-06-13 16:20:00,76.1,55.5,30.03,East,97,13.0,13.0,49,0.00,,,0.04,Wunderground v.1.15,2013-06-13 21:20:00,
2013-06-13 16:25:00,76.2,55.1,30.03,East,93,12.0,16.0,48,0.00,,,0.04,Wunderground v.1.15,2013-06-13 21:25:00,
2013-06-13 16:30:00,76.5,55.3,30.03,East,92,12.0,12.0,48,0.00,,,0.04,Wunderground v.1.15,2013-06-13 21:30:00,
2013-06-13 16:35:00,76.6,56.0,30.03,ESE,111,13.0,15.0,49,0.00,,,0.04,Wunderground v.1.15,2013-06-13 21:35:00,
2013-06-13 16:40:00,77.2,55.4,30.03,SE,135,15.0,20.0,47,0.00,,,0.04,Wunderground v.1.15,2013-06-13 21:40:00,
2013-06-13 16:45:00,77.1,54.1,30.02,ESE,119,15.0,20.0,45,0.00,,,0.04,Wunderground v.1.15,2013-06-13 21:45:00,
2013-06-13 16:50:00,77.2,56.0,30.02,ESE,117,15.0,20.0,48,0.00,,,0.04,Wunderground v.1.15,2013-06-13 21:50:00,
2013-06-13 16:55:00,77.0,55.2,30.02,ESE,113,14.0,20.0,47,0.00,,,0.04,Wunderground v.1.15,2013-06-13 21:55:00,
2013-06-13 17:00:00,76.9,55.7,30.01,ESE,114,13.0,20.0,48,0.00,,,0.04,Wunderground v.1.15,2013-06-13 22:00:00,
2013-06-13 17:05:00,76.5,55.9,30.01,ESE,105,14.0,20.0,49,0.00,,,0.04,Wunderground v.1.15,2013-06-13 22:05:00,
2013-06-13 17:15:00,76.2,56.2,30.01,ESE,110,15.0,20.0,50,0.00,,,0.04,Wunderground v.1.15,2013-06-13 22:15:00,
2013-06-13 17:20:00,76.6,56.6,30.00,SE,128,15.0,20.0,50,0.00,,,0.04,Wunderground v.1.15,2013-06-13 22:20:00,
2013-06-13 17:25:00,76.8,57.3,30.00,SE,127,15.0,20.0,51,0.00,,,0.04,Wunderground v.1.15,2013-06-13 22:25:00,
2013-06-13 17:30:00,76.9,56.3,30.00,ESE,103,16.0,16.0,49,0.00,,,0.04,Wunderground v.1.15,2013-06-13 22:30:00,
2013-06-13 17:35:00,76.5,57.0,30.00,ESE,109,16.0,20.0,51,0.00,,,0.04,Wunderground v.1.15,2013-06-13 22:35:00,
2013-06-13 17:45:00,77.0,55.8,29.99,SE,140,15.0,16.0,48,0.00,,,0.04,Wunderground v.1.15,2013-06-13 22:45:00,
2013-06-13 17:50:00,76.8,55.0,29.99,ESE,117,16.0,20.0,47,0.00,,,0.04,Wunderground v.1.15,2013-06-13 22:50:00,
2013-06-13 17:55:00,76.7,55.0,29.99,ESE,123,16.0,20.0,47,0.00,,,0.04,Wunderground v.1.15,2013-06-13 22:55:00,
2013-06-13 18:00:00,76.9,56.3,29.99,ESE,120,14.0,20.0,49,0.00,,,0.04,Wunderground v.1.15,2013-06-13 23:00:00,
2013-06-13 18:05:00,76.6,54.9,29.99,ESE,122,13.0,20.0,47,0.00,,,0.04,Wunderground v.1.15,2013-06-13 23:05:00,
2013-06-13 18:10:00,76.5,55.3,29.99,SE,125,14.0,14.0,48,0.00,,,0.04,Wunderground v.1.15,2013-06-13 23:10:00,
2013-06-13 18:20:00,76.0,55.5,30.00,ESE,119,12.0,12.0,49,0.00,,,0.04,Wunderground v.1.15,2013-06-13 23:20:00,
2013-06-13 18:25:00,76.0,56.0,29.99,SE,126,11.0,20.0,50,0.00,,,0.04,Wunderground v.1.15,2013-06-13 23:25:00,
2013-06-13 18:30:00,76.2,55.6,29.99,SE,133,11.0,11.0,49,0.00,,,0.04,Wunderground v.1.15,2013-06-13 23:30:00,
2013-06-13 18:35:00,76.2,55.6,29.99,ESE,112,11.0,20.0,49,0.00,,,0.04,Wunderground v.1.15,2013-06-13 23:35:00,
2013-06-13 18:40:00,76.1,56.1,29.99,ESE,111,11.0,11.0,50,0.00,,,0.04,Wunderground v.1.15,2013-06-13 23:40:00,
2013-06-13 18:50:00,76.1,56.7,29.98,SE,128,12.0,12.0,51,0.00,,,0.04,Wunderground v.1.15,2013-06-13 23:50:00,
2013-06-13 18:55:00,76.0,56.6,29.98,ESE,111,11.0,20.0,51,0.00,,,0.04,Wunderground v.1.15,2013-06-13 23:55:00,
2013-06-13 19:00:00,76.2,56.7,29.98,SE,128,11.0,11.0,51,0.00,,,0.04,Wunderground v.1.15,2013-06-14 00:00:00,
2013-06-13 19:05:00,76.2,56.2,29.98,SE,137,11.0,20.0,50,0.00,,,0.04,Wunderground v.1.15,2013-06-14 00:05:00,
2013-06-13 19:10:00,76.2,56.2,29.98,SE,126,11.0,11.0,50,0.00,,,0.04,Wunderground v.1.15,2013-06-14 00:10:00,
2013-06-13 19:15:00,76.1,56.1,29.97,SE,134,11.0,15.0,50,0.00,,,0.04,Wunderground v.1.15,2013-06-14 00:15:00,
2013-06-13 19:25:00,75.5,55.6,29.98,ESE,121,10.0,20.0,50,0.00,,,0.04,Wunderground v.1.15,2013-06-14 00:25:00,
2013-06-13 19:30:00,75.5,56.1,29.97,SE,136,9.0,9.0,51,0.00,,,0.04,Wunderground v.1.15,2013-06-14 00:30:00,
2013-06-13 19:35:00,75.4,56.0,29.97,ESE,123,9.0,20.0,51,0.00,,,0.04,Wunderground v.1.15,2013-06-14 00:35:00,
2013-06-13 19:40:00,75.4,56.0,29.97,ESE,121,8.0,20.0,51,0.00,,,0.04,Wunderground v.1.15,2013-06-14 00:40:00,
2013-06-13 19:45:00,75.6,56.7,29.97,SE,126,8.0,20.0,52,0.00,,,0.04,Wunderground v.1.15,2013-06-14 00:45:00,
2013-06-13 19:55:00,75.6,56.7,29.97,ESE,121,6.0,20.0,52,0.00,,,0.04,Wunderground v.1.15,2013-06-14 00:55:00,
2013-06-13 20:00:00,75.5,56.6,29.98,ESE,111,6.0,6.0,52,0.00,,,0.04,Wunderground v.1.15,2013-06-14 01:00:00,
2013-06-13 20:05:00,75.5,56.6,29.98,ESE,111,6.0,20.0,52,0.00,,,0.04,Wunderground v.1.15,2013-06-14 01:05:00,
2013-06-13 20:10:00,75.4,56.5,29.98,ESE,112,6.0,20.0,52,0.00,,,0.04,Wunderground v.1.15,2013-06-14 01:10:00,
2013-06-13 20:15:00,75.5,56.1,29.98,ESE,122,6.0,20.0,51,0.00,,,0.04,Wunderground v.1.15,2013-06-14 01:15:00,
2013-06-13 20:20:00,75.3,57.0,29.98,ESE,122,7.0,7.0,53,0.00,,,0.04,Wunderground v.1.15,2013-06-14 01:20:00,
2013-06-13 20:25:00,74.6,56.9,29.98,ESE,122,5.0,20.0,54,0.00,,,0.04,Wunderground v.1.15,2013-06-14 01:25:00,
2013-06-13 20:30:00,74.1,57.4,29.98,ESE,122,4.0,20.0,56,0.00,,,0.04,Wunderground v.1.15,2013-06-14 01:30:00,
2013-06-13 20:35:00,73.6,56.9,29.98,ESE,122,4.0,20.0,56,0.00,,,0.04,Wunderground v.1.15,2013-06-14 01:35:00,
2013-06-13 20:40:00,73.1,57.0,29.98,ESE,122,4.0,20.0,57,0.00,,,0.04,Wunderground v.1.15,2013-06-14 01:40:00,
2013-06-13 20:45:00,72.6,57.0,29.98,ESE,106,4.0,20.0,58,0.00,,,0.04,Wunderground v.1.15,2013-06-14 01:45:00,
2013-06-13 20:50:00,72.1,57.4,29.97,East,90,5.0,20.0,60,0.00,,,0.04,Wunderground v.1.15,2013-06-14 01:50:00,
2013-06-13 21:00:00,71.1,57.4,29.97,East,92,7.0,20.0,62,0.00,,,0.04,Wunderground v.1.15,2013-06-14 02:00:00,
2013-06-13 21:05:00,70.8,57.1,29.98,East,99,6.0,20.0,62,0.00,,,0.04,Wunderground v.1.15,2013-06-14 02:05:00,
2013-06-13 21:10:00,70.5,57.3,29.98,East,91,6.0,20.0,63,0.00,,,0.04,Wunderground v.1.15,2013-06-14 02:10:00,
2013-06-13 21:15:00,70.0,57.3,29.98,East,92,6.0,20.0,64,0.00,,,0.04,Wunderground v.1.15,2013-06-14 02:15:00,
2013-06-13 21:20:00,69.7,57.0,29.98,East,98,7.0,20.0,64,0.00,,,0.04,Wunderground v.1.15,2013-06-14 02:20:00,
2013-06-13 21:30:00,68.8,57.4,29.98,East,97,7.0,7.0,67,0.00,,,0.04,Wunderground v.1.15,2013-06-14 02:30:00,
2013-06-13 21:35:00,68.6,57.6,29.98,East,95,7.0,20.0,68,0.00,,,0.04,Wunderground v.1.15,2013-06-14 02:35:00,
2013-06-13 21:40:00,68.3,57.7,29.98,East,98,6.0,20.0,69,0.00,,,0.04,Wunderground v.1.15,2013-06-14 02:40:00,
2013-06-13 21:45:00,68.0,57.8,29.99,East,98,6.0,20.0,70,0.00,,,0.04,Wunderground v.1.15,2013-06-14 02:45:00,
2013-06-13 21:50:00,67.8,58.1,29.99,East,88,5.0,20.0,71,0.00,,,0.04,Wunderground v.1.15,2013-06-14 02:50:00,
2013-06-13 21:55:00,67.6,58.2,29.99,East,84,6.0,20.0,72,0.00,,,0.04,Wunderground v.1.15,2013-06-14 02:55:00,
2013-06-13 22:05:00,67.4,58.1,30.00,East,83,5.0,7.0,72,0.00,,,0.04,Wunderground v.1.15,2013-06-14 03:05:00,
2013-06-13 22:10:00,67.3,58.0,30.00,East,82,4.0,20.0,72,0.00,,,0.04,Wunderground v.1.15,2013-06-14 03:10:00,
2013-06-13 22:15:00,67.1,57.8,29.99,East,84,6.0,20.0,72,0.00,,,0.04,Wunderground v.1.15,2013-06-14 03:15:00,
2013-06-13 22:20:00,66.9,58.0,29.99,East,89,6.0,20.0,73,0.00,,,0.04,Wunderground v.1.15,2013-06-14 03:20:00,
2013-06-13 22:25:00,66.7,57.8,29.99,East,90,6.0,20.0,73,0.00,,,0.04,Wunderground v.1.15,2013-06-14 03:25:00,
2013-06-13 22:35:00,66.3,57.8,29.99,East,88,7.0,20.0,74,0.00,,,0.04,Wunderground v.1.15,2013-06-14 03:35:00,
2013-06-13 22:40:00,66.1,57.6,29.99,East,101,7.0,20.0,74,0.00,,,0.04,Wunderground v.1.15,2013-06-14 03:40:00,
2013-06-13 22:45:00,65.9,57.0,30.00,East,101,7.0,20.0,73,0.00,,,0.04,Wunderground v.1.15,2013-06-14 03:45:00,
2013-06-13 22:50:00,65.8,56.9,30.00,East,99,7.0,20.0,73,0.00,,,0.04,Wunderground v.1.15,2013-06-14 03:50:00,
2013-06-13 22:55:00,65.7,56.8,30.00,ESE,103,8.0,20.0,73,0.00,,,0.04,Wunderground v.1.15,2013-06-14 03:55:00,
2013-06-13 23:00:00,65.5,56.6,30.00,ESE,104,7.0,20.0,73,0.00,,,0.04,Wunderground v.1.15,2013-06-14 04:00:00,
2013-06-13 23:05:00,65.3,56.8,30.00,ESE,103,7.0,20.0,74,0.00,,,0.04,Wunderground v.1.15,2013-06-14 04:05:00,
2013-06-13 23:10:00,65.1,56.6,29.99,ESE,103,8.0,20.0,74,0.00,,,0.04,Wunderground v.1.15,2013-06-14 04:10:00,
2013-06-13 23:15:00,64.9,56.4,29.98,East,100,8.0,20.0,74,0.00,,,0.04,Wunderground v.1.15,2013-06-14 04:15:00,
2013-06-13 23:20:00,65.0,56.5,29.99,ESE,104,8.0,20.0,74,0.00,,,0.04,Wunderground v.1.15,2013-06-14 04:20:00,
2013-06-13 23:25:00,64.9,56.4,29.98,East,92,8.0,20.0,74,0.00,,,0.04,Wunderground v.1.15,2013-06-14 04:25:00,
2013-06-13 23:30:00,64.8,56.3,29.98,East,92,7.0,20.0,74,0.00,,,0.04,Wunderground v.1.15,2013-06-14 04:30:00,
2013-06-13 23:35:00,64.7,56.2,29.98,East,95,7.0,20.0,74,0.00,,,0.04,Wunderground v.1.15,2013-06-14 04:35:00,
2013-06-13 23:40:00,64.5,56.4,29.98,East,101,8.0,20.0,75,0.00,,,0.04,Wunderground v.1.15,2013-06-14 04:40:00,
2013-06-13 23:45:00,64.6,56.5,29.98,East,94,8.0,20.0,75,0.00,,,0.04,Wunderground v.1.15,2013-06-14 04:45:00,
2013-06-13 23:50:00,64.5,56.4,29.98,East,92,7.0,7.0,75,0.00,,,0.04,Wunderground v.1.15,2013-06-14 04:50:00,
2013-06-13 23:55:00,64.4,56.3,29.98,East,86,6.0,20.0,75,0.00,,,0.04,Wunderground v.1.15,2013-06-14 04:55:00,